Terug naar catalogus

STARLINK-32107

ActiefCommunicatieVLEO
NORAD 59694·PAYLOAD·🇺🇸 United States

Gelanceerd May 8, 2024 vanaf Cape Canaveral Space Force Station

Loading…

Volgende Passages (komende 24 uur)

TLE

VersSource: CelesTrak SupGP

Epoch: Sep 14, 2026, 22:31 UTC

1 59694C 24086N   26257.93868056  .00052566  00000+0  19038-2 0  2573
2 59694  43.0039  71.3757 0001614 275.0692  37.9452 15.27554240    13

Volg STARLINK-32107 in realtime met AllMySat

Download on the App Store